KCMH Airport Diagram

We have created a template for each of the higher traffic airports in the vZID airspace. They include KCMH, KCRW, KCVG, KDAY, KIND, KLEX and KSDF. You wil find usefull information including the airport diagram, weather, and specific airport procedures.

KCMH Weather

[Source: ADDS]
METAR
KCMH 230451Z 03005KT 10SM FEW040 BKN055 OVC200 20/16 A3002 RMK AO2 SLP162 T02000161 402720200 =
KCMH 230534Z 2306/2406 05007KT P6SM SCT040 BKN060 FM231400 04010KT P6SM SCT050 FM240000 02005KT P6SM SKC
TAF
KCMH 230534Z 2306/2406 05007KT P6SM SCT040 BKN060 FM231400 04010KT P6SM SCT050 FM240000 02005KT P6SM SKC =

KCMH Operations

Calm wind runway(s) up to 10 kts: Arriving/Departing 28L/R

Typically, Rw 10R/28L for departures to the West and South and Rw 10L/28R for departures to the North and East.

FBOs: Lane Aviation midfield near Tower, Signature South of Twy B.

Advise ATC if you have updated scenery for KCMH as there are significant changes to the runway/taxiways on the South side of the airport. Default scenery does not match the Airport Diagram available through the usual sources.

JSN Epic template designed by JoomlaShine.com